Flag for U.S.A. Weather past 2 weeks in Brownsville, Texas, U.S.A.

Now
57 °F

Fog.


Feels Like: 55 °F
Forecast: 56 / 64 °F
Wind: 10 mph from North

Location: Brownsville / South Padre Island International Airport

Current Time: Mar 2, 2015 at 1:27:06 PM

Latest Report: Mar 2, 2015 at 1:00 PM


Visibility: 3 mi

Pressure: 30.21 "Hg

Humidity: 96%

Dew point: 56 °F

Location of BrownsvilleLocation

Historic Weather in Brownsville — Graph

°F

Brownsville temperature yesterday

Maximum temperature yesterday: 61 °F (at 2:53 PM)
Minimum temperature yesterday: 49 °F (at 3:53 AM)
Average temperature yesterday: 54 °F

Past Weeks' High & Low Weather Summary

 TemperatureHumidityPressure
High80 °F (Feb 16, 1:53 PM)100% (Feb 26, 1:53 AM)30.40 "Hg (Feb 26, 1:53 AM)
Low38 °F (Feb 24, 4:53 AM)37% (Feb 18, 1:53 PM)29.78 "Hg (Feb 16, 3:53 PM)
Average58 °F83%30.10 "Hg
* Reported Feb 15 11:53 AM — Mar 2 11:53 AM, Brownsville, Weather by CustomWeather, © 2015

Note: Actual official high and low records may vary slightly from our data, if they occured in-between our weather recording intervals... More about our weather records

Advertising

Brownsville weather history for previous 24 hours

 ConditionsComfort  
Time TempWeatherWind HumidityBarometerVisibility
11:53 AM
Mon, Mar 2
56 °FFog.9 mph97%30.24 "Hg2 mi
10:53 AM55 °FFog.9 mph100%30.26 "Hg1 mi
9:53 AM55 °FFog.8 mph96%30.26 "Hg1 mi
8:53 AM54 °FFog.7 mph97%30.24 "Hg1 mi
7:53 AM53 °FFog.7 mph100%30.22 "Hg1 mi
6:53 AM53 °FFog.8 mph100%30.21 "Hg2 mi
6:01 AM53 °FFog.6 mph100%30.20 "Hg2 mi
4:53 AM54 °FFog.7 mph97%30.18 "Hg5 mi
3:53 AM54 °FLow clouds.6 mph97%30.19 "Hg7 mi
2:53 AM54 °FFog.6 mph97%30.20 "Hg5 mi
2:02 AM54 °FFog.8 mph97%30.21 "Hg3 mi
1:53 AM54 °FFog.7 mph97%30.21 "Hg2 mi
12:53 AM55 °FFog.9 mph96%30.22 "Hg2 mi
11:53 PM
Sun, Mar 1
55 °FFog.3 mph96%30.23 "Hg3 mi
10:53 PM55 °FFog.7 mph96%30.22 "Hg2 mi
9:53 PM55 °FFog.7 mph96%30.21 "Hg4 mi
8:53 PM56 °FFog.9 mph93%30.19 "Hg4 mi
7:53 PM56 °FFog.7 mph97%30.17 "Hg2 mi
6:53 PM57 °FFog.8 mph93%30.15 "Hg2 mi
5:53 PM58 °FFog.7 mph90%30.14 "Hg6 mi
4:53 PM59 °FFog.7 mph90%30.13 "Hg6 mi
3:53 PM60 °FLow clouds.6 mph83%30.12 "Hg7 mi
2:53 PM61 °FLow clouds.7 mph81%30.13 "Hg8 mi
1:53 PM59 °FLow clouds.6 mph87%30.16 "Hg10 mi
Weather by CustomWeather, © 2015

See weather overviewHow to use our weather pages